This demonstration page uses our WeatherBlox Daily Observations layout. Learn more.

Left ArrowRight Arrow

40.92945, -100.16068

Hourly Observations for September 16, 2021

Temp ( °F °C ) Dew Point ( °F °C ) Humidity (%) Winds ( mph kmh ) Pressure ( in mb ) Visibility ( mi km ) Precip ( " mm )
12:15 am 00:15 Clear 70 21.2 61 16.2 73 73 S 12 19 29.77 1008 10 16 N/A
12:35 am 00:35 Clear 70 21.1 61 16.2 74 74 S 13 20 29.77 1008 10 16 N/A
12:55 am 00:55 Clear 70 21 61 16.2 74 74 S 15 24 29.77 1008 10 16 N/A
1:15 am 01:15 Clear 69 20.5 61 16.1 76 76 S 13 20 29.78 1008 10 16 N/A
1:35 am 01:35 Clear 69 20.5 61 16.1 76 76 S 16 26 29.78 1008 10 16 N/A
1:55 am 01:55 Clear 68 20.2 61 16.1 77 77 S 14 22 29.78 1008 10 16 N/A
2:15 am 02:15 Clear 68 20 61 16.1 78 78 S 12 19 29.78 1009 10 16 N/A
2:35 am 02:35 Clear 68 19.9 61 16 78 78 S 15 24 29.78 1009 10 16 N/A
2:55 am 02:55 Clear 67 19.5 61 16 80 80 S 13 20 29.79 1009 10 16 N/A
3:15 am 03:15 Clear 67 19.5 61 16 80 80 S 13 20 29.79 1009 10 16 N/A
3:35 am 03:35 Clear 67 19.5 60 15.8 79 79 S 14 22 29.78 1008 10 16 N/A
3:55 am 03:55 Clear 67 19.5 60 15.8 79 79 S 13 20 29.78 1008 10 16 N/A
4:15 am 04:15 Clear 66 19 60 15.8 82 82 S 12 19 29.78 1009 10 16 N/A
4:35 am 04:35 Clear 66 18.8 61 16 84 84 S 12 19 29.77 1008 10 16 N/A
4:55 am 04:55 Clear 66 19 61 16 83 83 S 13 20 29.77 1008 10 16 N/A
5:15 am 05:15 Clear 66 18.8 61 16.1 84 84 S 12 19 29.77 1008 10 16 N/A
5:35 am 05:35 Clear 65 18.6 61 16.1 85 85 S 10 17 29.77 1008 10 16 N/A
5:55 am 05:55 Clear 65 18.5 61 16.1 86 86 S 13 20 29.78 1008 10 16 N/A
6:15 am 06:15 Clear 65 18.5 61 16.2 87 87 S 13 20 29.78 1008 10 16 N/A
6:35 am 06:35 Clear 65 18.2 61 16.2 88 88 S 12 19 29.77 1008 10 16 N/A
6:55 am 06:55 Clear 65 18.2 61 16.2 88 88 S 10 17 29.78 1008 10 16 N/A
7:15 am 07:15 Clear 65 18.2 61 16.2 88 88 S 12 19 29.78 1008 10 16 N/A
7:35 am 07:35 Sunny 65 18.3 61 16.2 88 88 S 10 17 29.78 1008 10 16 N/A
7:55 am 07:55 Sunny 65 18.5 61 16.2 87 87 S 9 15 29.78 1008 10 16 N/A
8:15 am 08:15 Sunny 66 19 62 16.5 86 86 S 12 19 29.78 1009 10 16 N/A
8:35 am 08:35 Sunny 67 19.7 62 16.6 82 82 S 13 20 29.77 1008 7 11 N/A
8:55 am 08:55 Sunny 69 20.5 62 16.9 80 80 S 14 22 29.76 1008 10 16 N/A
9:15 am 09:15 Sunny 70 21.2 63 17 77 77 S 15 24 29.75 1008 10 16 N/A
9:35 am 09:35 Sunny 72 22.2 63 17.2 73 73 S 16 26 29.74 1007 10 16 N/A
9:55 am 09:55 Sunny 73 22.9 63 17.4 71 71 SSW 17 28 29.74 1007 10 16 N/A
10:15 am 10:15 Sunny 74 23.6 64 17.6 69 69 SSW 18 30 29.73 1007 10 16 N/A
10:35 am 10:35 Sunny 76 24.5 64 17.6 66 66 SSW 17 28 29.73 1007 10 16 N/A
10:55 am 10:55 Sunny 78 25.5 64 17.7 62 62 SSW 15 24 29.72 1006 10 16 N/A
11:15 am 11:15 Sunny 80 26.7 64 17.6 57 57 SSW 17 28 29.71 1006 10 16 N/A
11:35 am 11:35 Sunny 82 27.7 64 17.8 55 55 SSW 13 20 29.69 1005 10 16 N/A
11:55 am 11:55 Sunny 84 28.8 64 17.9 52 52 SSW 18 30 29.68 1005 10 16 N/A
12:15 pm 12:15 Sunny 85 29.5 64 17.9 50 50 SSW 16 26 29.66 1005 10 16 N/A
12:35 pm 12:35 Sunny 86 30.1 64 17.6 47 47 S 15 24 29.66 1004 10 16 N/A
12:55 pm 12:55 Sunny 87 30.7 64 17.5 45 45 S 17 28 29.64 1004 10 16 N/A
1:15 pm 13:15 Sunny 89 31.5 64 17.9 44 44 S 16 26 29.64 1004 10 16 N/A
1:35 pm 13:35 Sunny 90 32.2 63 17.3 41 41 S 16 26 29.62 1003 10 16 N/A
1:55 pm 13:55 Sunny 91 32.5 62 16.8 39 39 SSW 20 31 29.61 1003 7 11 N/A
2:15 pm 14:15 Sunny 91 33 62 16.7 38 38 S 15 24 29.60 1002 7 11 N/A
2:35 pm 14:35 Hazy 92 33.5 60 15.7 34 34 SSW 17 28 29.58 1002 5 8 N/A
2:55 pm 14:55 Sunny 93 33.9 61 15.9 34 34 S 21 33 29.58 1002 10 16 N/A
3:15 pm 15:15 Sunny 93 33.8 60 15.6 33 33 S 21 33 29.57 1001 10 16 N/A
3:35 pm 15:35 Sunny 93 34 60 15.3 32 32 S 23 37 29.57 1001 10 16 N/A
3:55 pm 15:55 Sunny 93 34 59 15 32 32 S 18 30 29.56 1001 10 16 N/A
4:15 pm 16:15 Sunny 93 33.9 60 15.3 33 33 S 18 30 29.56 1001 10 16 N/A
4:35 pm 16:35 Sunny 93 34 59 15.2 32 32 SSW 20 31 29.56 1001 10 16 N/A
4:55 pm 16:55 Sunny 92 33.6 59 15 33 33 S 18 30 29.55 1001 10 16 N/A
5:15 pm 17:15 Sunny 92 33.5 59 15 33 33 S 17 28 29.55 1001 7 11 N/A
5:35 pm 17:35 Sunny 92 33.3 59 15.1 33 33 S 16 26 29.55 1001 10 16 N/A
5:55 pm 17:55 Sunny 91 32.9 59 15 34 34 S 16 26 29.56 1001 10 16 N/A
6:15 pm 18:15 Sunny 90 32.1 62 16.4 39 39 SSE 14 22 29.56 1001 10 16 N/A
6:35 pm 18:35 Sunny 88 31.2 62 16.6 41 41 SSE 14 22 29.57 1001 10 16 N/A
6:55 pm 18:55 Sunny 87 30.5 62 16.4 43 43 SSE 13 20 29.59 1002 10 16 N/A
7:15 pm 19:15 Sunny 85 29.2 62 16.7 47 47 SSE 12 19 29.60 1002 10 16 N/A
7:35 pm 19:35 Sunny 82 27.9 62 16.8 51 51 SSE 12 19 29.61 1003 10 16 N/A
7:55 pm 19:55 Clear 81 27.1 62 16.7 53 53 SSE 15 24 29.61 1003 10 16 N/A
8:15 pm 20:15 Clear 82 27.9 62 16.9 51 51 SSE 21 33 29.61 1003 10 16 N/A
8:35 pm 20:35 Clear 81 27.4 63 17 53 53 SSE 20 31 29.62 1003 10 16 N/A
8:55 pm 20:55 Clear 80 26.5 63 17.3 57 57 SSE 16 26 29.65 1004 10 16 N/A
9:15 pm 21:15 Clear 79 26.2 63 17.3 58 58 SSE 13 20 29.67 1005 10 16 N/A
9:35 pm 21:35 Clear 78 25.7 63 17.1 59 59 SSE 14 22 29.68 1005 10 16 N/A
9:55 pm 21:55 Clear 78 25.3 62 16.8 59 59 SSE 13 20 29.69 1005 10 16 N/A
10:15 pm 22:15 Clear 77 25 62 16.5 59 59 SSE 14 22 29.70 1006 10 16 N/A
10:35 pm 22:35 Clear 76 24.5 62 16.5 61 61 S 13 20 29.70 1006 10 16 N/A
10:55 pm 22:55 Clear 75 24.1 62 16.4 62 62 SSE 13 20 29.72 1006 10 16 N/A
11:15 pm 23:15 Clear 75 23.8 62 16.4 63 63 SSE 13 20 29.72 1006 10 16 N/A
11:35 pm 23:35 Clear 74 23.4 62 16.4 65 65 N N/A 29.74 1007 10 16 N/A
11:55 pm 23:55 Clear 73 22.6 61 16.2 67 67 S 3 6 29.75 1007 10 16 N/A

Powered by AerisWeather